Weather History for Hagerstown, MD

Change the Weather History Date:

Wednesday, May 15, 2013

  Actual Average Record
Temperature  
Mean Temperature 65 °F -  
Max Temperature 81 °F 70 °F 88 °F (2007)
Min Temperature 48 °F 50 °F 39 °F (2001)
Growing Degree Days 15 (Base 50)    
Moisture  
Dew Point 53 °F    
Average Humidity 69    
Maximum Humidity 86    
Minimum Humidity 51    
Precipitation  
Precipitation T in - - ()
Month to date precipitation 1.50  
Year to date precipitation 9.46  
Sea Level Pressure  
Sea Level Pressure 29.85 in    
Wind  
Wind Speed 5 mph (SW)    
Max Wind Speed 15 mph    
Max Gust Speed 28 mph    
Visibility 10 miles    
Events Rain , Thunderstorm    
Averages and records for this station are not official NWS values.
T = Trace of Precipitation, MM = Missing Value Source: NWS Daily Summary

Daily Weather History Graph

Daily Weather History Graph

Search for Another Location

Airport:

Trip Planner

Search our weather history database for the weather conditions in past years. The results will help you decide how hot, cold, wet, or windy it might be!

Date:

Astronomy

May. 15, 2013 Rise Set
Actual Time 5:56 AM EDT 8:18 PM EDT
Civil Twilight 5:25 AM EDT 8:49 PM EDT
Nautical Twilight 4:48 AM EDT 9:27 PM EDT
Astronomical Twilight 4:06 AM EDT 10:09 PM EDT
Moon 10:29 AM EDT (5/15) 12:04 AM EDT (5/15)
Length of Visible Light 15h 23m
Length of Day
14h 22m
Waxing Crescent, 26% of the Moon is Illuminated
May 15
Waxing Crescent
May 18
First Quarter
May 25
Full
May 31
Last Quarter
Jun 8
New

Hourly Weather History & Observations

Time (EDT) Temp. Heat Index Dew Point Humidity Pressure Visibility Wind Dir Wind Speed Gust Speed Precip Events Conditions
12:53 AM 54.0 °F - 39.9 °F 59% 30.04 in 10.0 mi NW 3.5 mph - N/A   Overcast
1:53 AM 53.1 °F - 42.1 °F 66% 30.02 in 10.0 mi NNW 3.5 mph - N/A   Overcast
2:53 AM 52.0 °F - 45.0 °F 77% 30.00 in 10.0 mi Calm Calm - N/A   Overcast
3:53 AM 50.0 °F - 46.0 °F 86% 29.99 in 9.0 mi NW 3.5 mph - N/A   Mostly Cloudy
4:53 AM 50.0 °F - 46.0 °F 86% 29.97 in 10.0 mi Calm Calm - N/A   Mostly Cloudy
5:53 AM 48.0 °F - 44.1 °F 86% 29.97 in 9.0 mi WNW 3.5 mph - N/A   Partly Cloudy
6:53 AM 50.0 °F - 45.0 °F 83% 29.97 in 7.0 mi Calm Calm - N/A   Mostly Cloudy
7:53 AM 51.1 °F - 46.0 °F 83% 29.97 in 9.0 mi WNW 3.5 mph - N/A   Clear
8:53 AM 54.0 °F - 46.0 °F 75% 29.96 in 10.0 mi Calm Calm - 0.00 in   Mostly Cloudy
9:53 AM 57.9 °F - 46.9 °F 67% 29.94 in 10.0 mi Variable 4.6 mph - N/A   Clear
10:53 AM 61.0 °F - 46.0 °F 58% 29.89 in 10.0 mi SSE 8.1 mph - N/A   Clear
11:53 AM 64.0 °F - 48.0 °F 56% 29.88 in 10.0 mi SSW 3.5 mph - N/A   Clear
12:53 PM 66.0 °F - 52.0 °F 60% 29.92 in 10.0 mi NNW 10.4 mph - N/A   Scattered Clouds
1:53 PM 69.1 °F - 53.1 °F 57% 29.86 in 10.0 mi ESE 5.8 mph - N/A   Clear
2:53 PM 75.9 °F - 57.0 °F 52% 29.78 in 10.0 mi SSW 13.8 mph 19.6 mph N/A   Clear
3:53 PM 80.1 °F 80.9 °F 60.1 °F 50% 29.75 in 10.0 mi South 12.7 mph - N/A   Clear
4:53 PM 81.0 °F 81.6 °F 60.1 °F 49% 29.72 in 10.0 mi SSE 11.5 mph - N/A   Clear
5:53 PM 80.1 °F 81.7 °F 64.0 °F 58% 29.71 in 10.0 mi South 4.6 mph - 0.00 in Rain Light Rain
6:01 PM 82.4 °F 83.4 °F 62.6 °F 51% 29.69 in 10.0 mi SSE 3.5 mph - 0.00 in Thunderstorm Thunderstorm
6:16 PM 82.4 °F 83.4 °F 62.6 °F 51% 29.69 in 10.0 mi SSE 5.8 mph - 0.00 in   Partly Cloudy
6:53 PM 82.0 °F 83.1 °F 63.0 °F 52% 29.70 in 10.0 mi SSE 4.6 mph - 0.00 in   Partly Cloudy
7:53 PM 80.1 °F 81.5 °F 63.0 °F 56% 29.72 in 10.0 mi Calm Calm - N/A   Partly Cloudy
8:53 PM 78.1 °F - 61.0 °F 56% 29.74 in 10.0 mi West 3.5 mph - N/A   Partly Cloudy
9:53 PM 80.1 °F 80.4 °F 57.0 °F 45% 29.76 in 10.0 mi WSW 9.2 mph - N/A   Partly Cloudy
10:53 PM 79.0 °F - 57.9 °F 48% 29.78 in 10.0 mi WSW 5.8 mph - N/A   Partly Cloudy
11:53 PM 75.9 °F - 59.0 °F 56% 29.78 in 10.0 mi SSW 5.8 mph - N/A   Clear